Showing default

OPS 7218 (TRANSIT 16), 2807

Orbit data source: Space-Track

OPS 7218 (TRANSIT 16), 2807 is a payload satellite owned by USN NAVAIR (US) in LEO that was launched on Thu, 18 May 1967 UTC via an SCOUT A launch vehicle from the Air Force Western Test Range (AFWTR). Payload-class satellites include a variety of spacecraft equipped with specific instruments for various scientific and technological missions. These include communications satellites like Starlink; space stations such as the ISS; scientific satellites like the Hubble; Earth observation satellites from companies like Planet Labs, Umbra, and HawkEye 360; GPS; miniature CubeSats for education and research; and military/defense satellites.

Loading next visibility...
Identifier
2807, 1967-048A
Orbit
LEO
Country
Flag of USUS
Related business
Manufacturer
APL
Mission
Spacecraft
Bus & Motor
TRANSIT 5, Unknown motor
Mass
~50 kg wet, ~50 kg dry
Launch date (UTC)
1967-05-18 (58 years ago)
Launch vehicle
SCOUT A
Launch site
Air Force Western Test Range (AFWTR)
Object type
Payload
Rocket body
Debris
Shape & HBR
Unknown
Radar Cross Section
Large (>1 m²)

Expand to show TLE details & history
Last TLE update: 9 hours ago

TLE from 9 hours ago
0 OPS 7218 (TRANSIT 16)
1 02807U 67048A   25303.19202308  .00000146  00000-0  21144-3 0  9996
2 02807  89.6782 355.4516 0018611 238.5919 180.6452 13.50708814876882
Epoch: 2025-10-30T04:36Z
TLE epoch observation values (Epoch: 2025-10-30T04:36:30.794Z)
Latitude
59.32363°
Longitude
-111.89133°
Altitude
1,093.655 km
Speed
7.304 km/s
True Right ascension
23h 43m 57s
True Declination
59° 10' 45"
Sunlit
Object was in full shadow at epoch
Visualization orbit readout
Latitude
Unknown
Longitude
Unknown
Altitude
Unknown
Speed
Unknown
Apparent Right ascension
Unknown
Apparent Declination
Unknown
Sunlit
N/A
Visualization observer readout
Local Sidereal Time
09:03:23
Azimuth
Unknown
Elevation
Unknown
Doppler factor
Unknown
Orbital elements
Apogee altitude
1,080.556 km
Perigee altitude
1,052.845 km
Semi-major axis
7,444.838 km
Eccentricity
0.00186
Inclination
89.6782°
RAAN
355.4516°
Arg. of periapsis
238.5919°
True anomaly
180.6428°
Mean anomaly
180.6452°
Eccentric anomaly
180.644°
Mean motion
3.37878 °/min
Orbital period
106.55 mins
BSTAR
0.00021144
Loading maneuver chart data...
Computing Atmospheric mass density...
Loading historical data...
Loading historical data...
Loading historical data...
Loading historical data...
Loading historical data...
Loading historical data...
Loading historical data...

Documentation

Showing up to 5 results
|